This demonstration page uses our WeatherBlox Daily Observations layout. Learn more.

Left ArrowRight Arrow

Hourly Observations for May 21, 2016

Temp ( °F °C ) Dew Point ( °F °C ) Humidity (%) Winds ( mph kmh ) Pressure ( in mb ) Visibility ( mi km ) Precip ( " mm )
12:23 am 00:23 Cloudy with Light Rain 60 15.6 58 14.4 93 93 NNE 3 6 30.00 1016 3 5 0.04 1.02
12:53 am 00:53 Cloudy with Light Rain 60 15.6 58 14.4 93 93 N 3 6 29.99 1016 5 8 0.05 1.27
1:29 am 01:29 Cloudy with Mist and Fog 60 15.6 58 14.4 93 93 NNE 3 6 30.00 1016 4 6 N/A
1:53 am 01:53 Cloudy with Mist and Fog 60 15.6 58 14.4 93 93 N N/A 29.98 1015 5 8 0.01 0.25
2:25 am 02:25 Cloudy 60 15.6 58 14.4 93 93 NNE 6 9 29.97 1015 7 11 N/A
2:53 am 02:53 Cloudy with Mist and Fog 59 15 58 14.4 96 96 NE 6 9 29.96 1015 6 10 N/A
3:21 am 03:21 Cloudy 60 15.6 58 14.4 93 93 N N/A 29.97 1015 10 16 N/A
3:53 am 03:53 Cloudy 60 15.6 58 14.4 93 93 N 6 9 29.96 1015 9 14 N/A
4:14 am 04:14 Cloudy 60 15.6 58 14.4 93 93 N 5 7 29.97 1015 9 14 N/A
4:53 am 04:53 Cloudy 59 15 57 13.9 93 93 N 5 7 29.96 1015 9 14 N/A
5:53 am 05:53 Cloudy 58 14.4 55 12.8 90 90 N 6 9 29.96 1015 7 11 N/A
6:14 am 06:14 Cloudy with Light Rain 58 14.4 55 12.8 90 90 N 6 9 29.97 1015 7 11 N/A
6:53 am 06:53 Cloudy with Light Rain 57 13.9 55 12.8 93 93 NNW 5 7 29.98 1015 4 6 N/A
7:03 am 07:03 Cloudy with Rain 57 13.9 45 7.2 64 64 N 6 9 30.00 1016 2 3 0.02 0.51
7:10 am 07:10 Cloudy with Light Rain 57 13.9 32 undefined 39 39 NNE 5 7 30.00 1016 3 5 0.02 0.51
7:51 am 07:51 Cloudy with Light Rain 57 14 30 -1 36 36 N 7 11 30.00 1016 3 4 0.04 1.02
7:53 am 07:53 Cloudy with Light Rain 57 13.9 30 -1.1 36 36 N 5 7 29.99 1016 3 4 0.04 1.02
8:07 am 08:07 Cloudy with Light Rain 57 13.9 30 -1.1 36 36 N 5 7 30.00 1016 5 8 0.01 0.25
8:45 am 08:45 Cloudy with Light Rain 58 14.4 29 -1.7 33 33 NNW 6 9 30.00 1016 6 10 0.01 0.25
8:53 am 08:53 Cloudy with Light Rain 58 14.4 28 -2.2 32 32 N 6 9 30.01 1016 5 8 0.01 0.25
9:10 am 09:10 Cloudy with Light Rain 58 14.4 29 -1.7 33 33 VRB 5 7 30.00 1016 4 6 N/A
9:29 am 09:29 Cloudy with Light Rain 58 14.4 28 -2.2 32 32 N 6 9 30.00 1016 3 5 0.02 0.51
9:38 am 09:38 Cloudy with Light Rain 58 14.4 28 -2.2 32 32 N 6 9 30.00 1016 4 6 0.02 0.51
9:53 am 09:53 Cloudy 59 15 28 -2.2 31 31 N 6 9 30.00 1016 9 14 0.02 0.51
10:20 am 10:20 Cloudy with Light Rain 60 15.6 28 -2.2 30 30 N 7 11 30.00 1016 8 13 N/A
10:53 am 10:53 Cloudy 62 16.7 29 -1.7 29 29 NW 10 17 30.01 1016 10 16 N/A
11:53 am 11:53 Cloudy 61 16.1 30 -1.1 31 31 NNW 8 13 30.02 1017 10 16 N/A
12:53 pm 12:53 Cloudy 62 16.7 29 -1.7 29 29 NNW 13 20 30.01 1016 10 16 N/A
1:53 pm 13:53 Cloudy 63 17.2 28 -2.2 27 27 N 13 20 30.02 1017 10 16 N/A
2:48 pm 14:48 Cloudy 64 18 28 -2 26 26 NNE 10 17 30.03 1017 10 16 N/A
2:53 pm 14:53 Cloudy 64 17.8 29 -1.7 27 27 VRB 7 11 30.02 1017 10 16 N/A
3:53 pm 15:53 Cloudy 66 18.9 29 -1.7 25 25 NNW 13 20 30.02 1017 10 16 N/A
4:53 pm 16:53 Cloudy 62 16.7 28 -2.2 28 28 NW 7 11 30.02 1017 10 16 N/A
5:53 pm 17:53 Cloudy 64 17.8 29 -1.7 27 27 N 5 7 30.03 1017 10 16 N/A
6:53 pm 18:53 Cloudy 64 17.8 32 undefined 30 30 NW 5 7 30.01 1016 10 16 N/A
7:53 pm 19:53 Mostly Cloudy 62 16.7 30 -1.1 30 30 NW 3 6 30.01 1016 10 16 N/A
8:53 pm 20:53 Clear 56 13.3 28 -2.2 34 34 N N/A 30.02 1017 10 16 N/A
9:53 pm 21:53 Mostly Cloudy 54 12.2 27 -2.8 35 35 N N/A 30.03 1017 10 16 N/A
10:53 pm 22:53 Clear 52 11.1 27 -2.8 38 38 N N/A 30.04 1017 7 11 N/A
11:53 pm 23:53 Clear 50 10 31 -0.6 48 48 N N/A 30.04 1017 10 16 N/A

Powered by AerisWeather